Showing default

ATS 3, 3029

Orbit data source: Space-Track

ATS 3, 3029 is a payload satellite owned by GSFC (US) in GEO that was launched on Sun, 05 Nov 1967 UTC via an ATLAS SLV-3 AGENA D launch vehicle from the Air Force Eastern Test Range (AFETR). Payload-class satellites include a variety of spacecraft equipped with specific instruments for various scientific and technological missions. These include communications satellites like Starlink; space stations such as the ISS; scientific satellites like the Hubble; Earth observation satellites from companies like Planet Labs, Umbra, and HawkEye 360; GPS; miniature CubeSats for education and research; and military/defense satellites.

Loading next visibility...
Identifier
3029, 1967-111A
Orbit
GEO
Country
Flag of USUS
Related business
Manufacturer
Hughes
Mission
Non-operational spacecraft
Bus & Motor
HS-306, JPL SR-28-3
Mass
714 kg wet, 252 kg dry
Launch date (UTC)
1967-11-05 (58 years ago)
Launch vehicle
ATLAS SLV-3 AGENA D
Launch site
Air Force Eastern Test Range (AFETR)
Object type
Payload
Rocket body
Debris
Shape & HBR
Unknown
Radar Cross Section
Large (>1 m²)

Expand to show TLE details & history
Last TLE update: 18 hours ago

TLE from 18 hours ago
0 ATS 3
1  3029U 67111A   26066.27390288 -.00000089  00000-0  00000+0 0  9996
2  3029   2.9155  79.5714 0014565  29.7771  48.9587  1.00271752213614
Epoch: 2026-03-07T06:34Z
TLE epoch observation values (Epoch: 2026-03-07T06:34:25.208Z)
Latitude
2.85965°
Longitude
-105.16479°
Altitude
35,745.44 km
Speed
3.078 km/s
True Right ascension
10h 33m 45s
True Declination
2° 51' 24"
Sunlit
Object was in daylight at epoch
Visualization orbit readout
Latitude
Unknown
Longitude
Unknown
Altitude
Unknown
Speed
Unknown
Apparent Right ascension
Unknown
Apparent Declination
Unknown
Sunlit
N/A
Visualization observer readout
Local Sidereal Time
04:12:01
Azimuth
Unknown
Elevation
Unknown
Doppler factor
Unknown
Orbital elements
Apogee altitude
35,849.085 km
Perigee altitude
35,726.256 km
Semi-major axis
42,165.808 km
Eccentricity
0.00146
Inclination
2.9155°
RAAN
79.5714°
Arg. of periapsis
29.7771°
True anomaly
49.08473°
Mean anomaly
48.9587°
Eccentric anomaly
49.0217°
Mean motion
0.25067 °/min
Orbital period
1,436.15 mins
BSTAR
0
Loading maneuver chart data...
Computing Atmospheric mass density...
Loading historical data...
Loading historical data...
Loading historical data...
Loading historical data...
Loading historical data...
Loading historical data...
Loading historical data...
Other satellites on launch #111 in the year 1967 (1967-11-05 UTC)

Documentation

Showing up to 5 results
|